Location: B�rgermoos
(47.6500°N, 9.0667°E)
Time: 01:41:34
(UTC+00:00)

Resurs 01 Rocket - Pass Details

Date: 18 September 2020
Orbit: 633 x 645 km, 98.0° (Epoch: 24 October)

Event Time Altitude Azimuth Distance (km) Brightness Sun altitude
Exits shadow 19:19:15 38° 92° (E) 984 2.1 -18.8°
Maximum altitude 19:19:54 41° 69° (ENE) 943 2.1 -18.9°
Drops below altitude 10° 19:24:05 10° 360° (N) 2,053 4.5 -19.5°
Sets 19:26:23 0° 353° (N) 2,966 5.5 -19.9°
